Location: Newark
(11.0000°N, 122.6717°E)
Time: 16:37:14
(UTC+00:00)

STARLINK 1025 - Pass Details

Date: 15 December 2019
Orbit: 345 x 354 km, 53.0° (Epoch: 22 January)

Event Time Altitude Azimuth Distance (km) Brightness Sun altitude
Rises 10:31:18 0° 204° (SSW) 2,222 7.5 -15.0°
Reaches altitude 10° 10:33:23 10° 197° (SSW) 1,380 6.2 -15.5°
Maximum altitude 10:36:20 43° 124° (SE) 547 3.3 -16.2°
Enters shadow 10:36:43 40° 101° (E) 572 3.3 -16.3°
